Weather History for Ithaca, NY

Change the Weather History Date:

Tuesday, October 8, 2013

  Actual Average Record
Temperature  
Mean Temperature 51 °F -  
Max Temperature 61 °F 59 °F 87 °F (1963)
Min Temperature 41 °F 40 °F 25 °F (1954)
Degree Days  
Heating Degree Days 14    
Growing Degree Days 1 (Base 50)    
Moisture  
Dew Point 43 °F    
Average Humidity 78    
Maximum Humidity 100    
Minimum Humidity 46    
Precipitation  
Precipitation 0.00 in - - ()
Sea Level Pressure  
Sea Level Pressure 30.28 in    
Wind  
Wind Speed 7 mph (North)    
Max Wind Speed 15 mph    
Max Gust Speed -    
Visibility 10 miles    
Events      
Averages and records for this station are not official NWS values.
T = Trace of Precipitation, MM = Missing Value Source: NWS Daily Summary

Daily Weather History Graph

Daily Weather History Graph

Search for Another Location

Airport:

Trip Planner

Search our weather history database for the weather conditions in past years. The results will help you decide how hot, cold, wet, or windy it might be!

Date:

Astronomy

Oct. 08, 2013 Rise Set
Actual Time 7:11 AM EDT 6:34 PM EDT
Civil Twilight 6:42 AM EDT 7:02 PM EDT
Nautical Twilight 6:10 AM EDT 7:35 PM EDT
Astronomical Twilight 5:37 AM EDT 8:08 PM EDT
Moon 11:07 AM EDT (10/8) 9:04 PM EDT (10/8)
Length of Visible Light 12h 20m
Length of Day
11h 23m
Waxing Crescent, 16% of the Moon is Illuminated
Oct 8
Waxing Crescent
Oct 11
First Quarter
Oct 18
Full
Oct 26
Last Quarter
Nov 3
New

Hourly Weather History & Observations

Time (EDT) Temp. Windchill Dew Point Humidity Pressure Visibility Wind Dir Wind Speed Gust Speed Precip Events Conditions
12:56 AM 50.0 °F - 43.9 °F 79% 30.07 in 10.0 mi NW 15.0 mph - N/A   Clear
1:56 AM 48.9 °F - 43.9 °F 83% 30.11 in 10.0 mi NW 9.2 mph - N/A   Clear
2:56 AM 47.8 °F - 43.0 °F 83% 30.13 in 10.0 mi WNW 11.5 mph - N/A   Clear
3:56 AM 45.9 °F 44.6 °F 43.0 °F 90% 30.14 in 10.0 mi NNW 3.5 mph - N/A   Clear
4:56 AM 43.0 °F 41.3 °F 41.9 °F 96% 30.17 in 10.0 mi ENE 3.5 mph - N/A   Clear
5:56 AM 41.9 °F 40.0 °F 41.9 °F 100% 30.20 in 10.0 mi North 3.5 mph - N/A   Clear
6:25 AM 42.8 °F - 41.0 °F 93% 30.20 in 10.0 mi Calm Calm - N/A   Mostly Cloudy
6:56 AM 43.0 °F - 41.9 °F 96% 30.24 in 10.0 mi Calm Calm - N/A   Mostly Cloudy
7:56 AM 45.0 °F - 43.9 °F 96% 30.26 in 10.0 mi Calm Calm - N/A   Mostly Cloudy
8:38 AM 48.2 °F - 44.6 °F 87% 30.26 in 10.0 mi Calm Calm - N/A   Scattered Clouds
8:56 AM 50.9 °F - 45.0 °F 80% 30.29 in 10.0 mi Calm Calm - N/A   Scattered Clouds
9:56 AM 52.9 °F - 45.9 °F 77% 30.32 in 10.0 mi WNW 4.6 mph - N/A   Scattered Clouds
10:56 AM 54.0 °F - 45.0 °F 72% 30.33 in 10.0 mi North 5.8 mph - N/A   Mostly Cloudy
11:56 AM 56.8 °F - 43.9 °F 62% 30.33 in 10.0 mi West 3.5 mph - N/A   Mostly Cloudy
12:56 PM 59.0 °F - 43.9 °F 57% 30.33 in 10.0 mi NW 10.4 mph - N/A   Scattered Clouds
1:56 PM 59.9 °F - 43.0 °F 54% 30.32 in 10.0 mi Variable 6.9 mph - N/A   Scattered Clouds
2:56 PM 61.0 °F - 41.0 °F 48% 30.32 in 10.0 mi North 8.1 mph - N/A   Scattered Clouds
3:56 PM 59.9 °F - 38.8 °F 46% 30.33 in 10.0 mi North 4.6 mph - N/A   Partly Cloudy
4:56 PM 59.0 °F - 39.9 °F 49% 30.32 in 10.0 mi North 5.8 mph - N/A   Clear
5:56 PM 56.8 °F - 39.9 °F 53% 30.33 in 10.0 mi North 4.6 mph - N/A   Clear
6:56 PM 50.0 °F - 43.0 °F 77% 30.35 in 10.0 mi North 3.5 mph - N/A   Clear
7:56 PM 45.0 °F - 43.0 °F 93% 30.37 in 10.0 mi Calm Calm - N/A   Clear
8:56 PM 43.9 °F 41.3 °F 41.9 °F 93% 30.38 in 10.0 mi ENE 4.6 mph - N/A   Clear
9:56 PM 45.0 °F 41.8 °F 41.9 °F 89% 30.39 in 10.0 mi East 5.8 mph - N/A   Clear
10:56 PM 45.0 °F 41.8 °F 41.9 °F 89% 30.40 in 10.0 mi East 5.8 mph - N/A   Clear
11:56 PM 45.0 °F 41.8 °F 43.0 °F 93% 30.39 in 10.0 mi ENE 5.8 mph - N/A   Clear